Temp
49 45 41 44 44 44 43 41 41 42 43 43 42 42 46 48 45 45 44 45 45 47 49 50 51 51 51 51 51 51 49 48 48 47 47 47 47 47 48 49 49 50 50 49
45 41 45 46 45 44 42 41 40 41 42 42 39 43 45 45 44 44 45 44 45 45 46 47 49 49 50 50 51 50 50 48 48 48 47 48 47 47 47 48 48 49 49 49
41 43 46 46 41 41 40 39 38 39 39 39 38 40 42 43 43 42 41 40 44 46 46 45 46 48 49 48 49 50 49 48 48 48 46 45 46 46 46 46 47 48 49 48
42 44 44 41 40 41 37 40 40 39 36 32 36 31 39 39 40 39 38 38 39 43 45 45 45 46 48 49 49 50 49 48 47 47 47 47 47 46 47 47 47 47 48 48
39 40 40 39 40 41 39 39 38 36 30 30 33 27 38 38 38 38 38 38 39 41 44 44 44 46 46 46 47 48 48 47 47 47 48 47 46 46 46 45 45 46 46 47
38 41 40 38 38 39 39 37 35 31 30 21 24 29 35 37 36 37 37 37 38 40 41 42 44 45 44 45 45 46 47 47 47 47 47 47 46 45 44 44 44 44 45 45
37 36 37 40 37 40 37 35 25 23 20 24 26 26 34 34 35 36 36 36 37 39 41 42 42 43 43 43 44 45 46 45 46 46 46 46 46 46 46 44 44 43 43 44
31 30 36 37 36 35 34 33 26 21 22 26 27 24 33 34 35 37 37 37 38 38 39 40 41 42 43 43 43 45 45 45 45 45 46 46 46 46 46 45 45 45 45 45
31 31 34 36 35 36 34 30 33 19 17 20 28 31 32 33 34 35 35 36 35 36 37 38 40 41 42 43 43 44 44 45 45 45 45 45 45 45 45 45 45 45 45 45
35 28 33 34 36 35 34 34 28 22 16 17 24 25 31 29 32 33 33 33 33 35 36 37 38 40 41 42 43 43 44 44 45 45 45 45 44 45 45 44 44 44 44 45
33 30 28 33 31 29 29 24 27 27 23 19 17 26 31 32 33 32 31 32 33 33 34 35 36 37 38 40 41 42 43 43 44 44 44 44 44 44 44 44 44 44 44 44
32 29 22 28 25 26 28 29 29 25 19 15 17 24 30 27 28 29 30 33 33 33 33 33 34 35 35 36 37 38 39 41 41 42 43 43 43 43 43 43 43 43 43 43
32 27 21 26 27 28 26 27 23 21 20 15 19 23 29 27 26 24 26 31 31 31 31 31 31 32 33 33 34 35 36 37 38 40 40 41 41 41 41 41 41 42 42 42
40 30 27 26 29 27 22 26 21 20 17 19 19 22 25 28 29 28 29 26 27 30 31 31 29 31 33 34 33 32 33 34 35 37 38 38 39 40 40 40 40 40 41 41
35 27 29 28 28 27 24 22 26 17 18 24 21 23 23 26 25 24 20 26 26 23 27 25 25 29 30 30 33 33 33 33 33 35 36 36 39 39 39 38 38 39 39 40
31 24 22 16 24 17 15 17 23 24 14 11 7 14 20 13 21 24 27 27 23 23 19 26 27 25 27 29 32 33 34 34 34 31 31 34 35 36 35 36 36 37 37 37
24 21 18 15 20 14 13 18 19 22 17 18 18 24 23 23 26 26 28 27 21 15 13 16 26 28 30 26 30 33 33 34 31 29 29 30 32 32 33 34 33 34 34 36
21 17 14 11 15 8 20 13 16 17 14 11 11 16 23 25 23 13 8 16 11 11 18 21 25 23 26 25 26 32 32 31 30 29 30 31 32 31 31 31 32 32 33 34
26 23 13 11 10 20 19 19 17 20 23 16 17 20 22 20 19 22 22 14 16 13 9 10 8 11 17 23 22 24 31 31 29 30 31 33 33 33 32 31 32 33 32 32
25 22 18 8 7 10 21 23 25 21 17 19 17 19 22 18 16 19 19 13 8 7 6 10 13 8 10 20 22 23 28 30 28 29 31 32 33 32 32 32 31 32 32 32
15 14 13 11 4 14 20 22 21 17 19 20 24 25 21 13 13 19 16 11 8 6 5 8 8 9 15 24 24 27 28 28 29 31 31 31 30 32 33 32 32 31 31 31
14 12 11 9 2 11 21 23 21 20 20 20 18 12 15 19 19 14 13 5 2 2 2 3 3 5 9 14 18 23 27 25 28 28 28 28 29 30 32 31 30 30 30 29
13 17 15 17 17 18 18 18 19 20 22 21 22 23 22 19 17 18 10 3 -1 -3 -4 -6 -5 -1 4 5 9 11 15 19 21 25 27 28 28 29 30 29 28 28 28 28
13 16 13 16 16 16 18 18 18 20 19 20 23 19 17 13 16 14 13 8 -0 -3 -3 -8 -7 -4 -2 1 3 5 11 15 17 21 26 28 26 27 27 29 29 28 27 26
14 15 16 12 9 13 14 16 16 17 16 16 16 16 14 14 12 10 9 7 -1 -4 -7 -10 -10 -8 -4 -2 -1 2 8 12 14 18 21 24 26 26 26 28 28 28 28 28
8 11 13 13 8 8 10 14 16 15 14 14 12 9 10 9 8 9 6 8 -1 -6 -8 -7 -8 -8 -3 -2 -1 1 3 8 10 15 18 20 23 24 25 26 25 30 30 31
MSLP
1014.02 1014.71 1014.80 1014.64 1014.94 1015.10 1015.45 1015.75 1015.92 1016.11 1016.33 1016.58 1016.88 1016.96 1016.97 1017.52 1018.25 1018.82 1019.29 1019.68 1019.84 1020.06 1020.38 1020.81 1021.27 1021.79 1022.27 1022.93 1023.44 1023.94 1024.61 1025.34 1025.87 1026.56 1027.02 1027.42 1027.64 1027.98 1028.10 1028.16 1028.30 1028.46 1028.63 1028.85
1014.73 1014.58 1014.47 1014.66 1015.06 1015.37 1015.71 1016.02 1016.37 1016.57 1016.76 1017.03 1017.43 1016.91 1016.75 1017.41 1018.32 1018.93 1019.36 1019.59 1019.68 1020.08 1020.29 1020.68 1021.19 1021.77 1022.17 1022.60 1023.20 1023.88 1024.41 1025.10 1025.65 1026.10 1026.64 1026.92 1027.44 1027.95 1028.12 1028.31 1028.41 1028.51 1028.66 1028.90
1014.43 1014.40 1014.46 1014.81 1015.48 1015.86 1016.15 1016.45 1016.81 1017.18 1017.58 1018.11 1018.25 1017.43 1017.01 1017.90 1018.60 1019.31 1019.78 1019.83 1019.63 1019.62 1020.02 1020.51 1021.09 1021.47 1022.11 1022.52 1022.93 1023.54 1024.17 1024.79 1025.46 1026.08 1026.76 1027.32 1027.69 1028.12 1028.32 1028.46 1028.56 1028.71 1028.78 1028.96
1014.64 1014.57 1014.79 1015.22 1015.73 1016.09 1016.75 1016.78 1017.12 1017.86 1018.67 1019.45 1019.24 1018.58 1017.65 1018.11 1018.84 1019.68 1020.26 1020.25 1020.01 1019.66 1019.81 1020.30 1020.92 1021.43 1021.85 1022.37 1022.89 1023.34 1023.94 1024.61 1025.28 1025.89 1026.31 1026.65 1027.01 1027.62 1027.88 1028.16 1028.48 1028.77 1028.93 1029.09
1014.95 1015.11 1015.36 1015.89 1016.17 1016.47 1017.29 1017.51 1018.20 1019.10 1019.91 1020.31 1020.15 1020.18 1018.14 1018.60 1019.25 1020.07 1020.65 1020.73 1020.50 1020.13 1019.95 1020.27 1020.91 1021.43 1021.96 1022.42 1022.84 1023.33 1023.91 1024.56 1025.11 1025.63 1026.04 1026.52 1027.00 1027.38 1027.78 1028.16 1028.49 1028.82 1029.14 1029.28
1015.58 1015.82 1016.10 1016.55 1017.05 1017.24 1017.88 1018.47 1019.50 1020.45 1020.97 1021.45 1020.69 1020.71 1019.20 1019.26 1019.87 1020.56 1021.10 1021.22 1021.10 1020.80 1020.61 1020.87 1021.27 1021.67 1022.16 1022.65 1023.14 1023.59 1024.03 1024.58 1025.10 1025.60 1026.00 1026.37 1026.75 1027.23 1027.67 1028.13 1028.45 1028.80 1029.10 1029.33
1016.24 1016.62 1016.90 1016.97 1017.72 1018.19 1018.36 1019.16 1020.75 1021.64 1022.11 1021.77 1021.50 1021.66 1019.36 1019.97 1020.59 1021.18 1021.66 1021.83 1021.74 1021.56 1021.41 1021.50 1021.74 1022.06 1022.41 1022.80 1023.20 1023.63 1024.05 1024.56 1025.10 1025.56 1025.94 1026.22 1026.55 1026.95 1027.21 1027.62 1028.04 1028.52 1028.89 1029.15
1016.47 1017.44 1017.48 1017.75 1017.99 1017.99 1018.85 1019.23 1020.26 1021.27 1022.48 1022.27 1022.17 1021.25 1019.94 1020.71 1021.25 1021.79 1022.21 1022.44 1022.41 1022.38 1022.32 1022.32 1022.45 1022.57 1022.77 1023.12 1023.42 1023.68 1023.98 1024.43 1024.94 1025.34 1025.61 1026.01 1026.35 1026.68 1026.96 1027.26 1027.64 1027.98 1028.28 1028.56
1016.36 1017.50 1018.18 1018.36 1018.56 1018.87 1019.53 1019.89 1020.23 1021.67 1023.50 1022.87 1021.48 1020.69 1021.00 1021.38 1021.86 1022.38 1022.81 1023.07 1023.34 1023.40 1023.34 1023.25 1023.18 1023.14 1023.20 1023.39 1023.58 1023.77 1024.10 1024.49 1024.85 1025.17 1025.56 1025.86 1026.17 1026.47 1026.68 1026.92 1027.30 1027.59 1027.96 1028.32
1015.76 1017.35 1018.65 1019.02 1019.19 1019.57 1019.61 1020.10 1020.95 1021.96 1023.06 1022.95 1021.96 1021.45 1020.63 1021.67 1022.22 1022.80 1023.33 1023.69 1023.98 1024.06 1024.08 1024.07 1024.08 1024.01 1023.97 1023.99 1024.00 1024.10 1024.33 1024.54 1024.81 1025.17 1025.49 1025.75 1025.99 1026.22 1026.44 1026.84 1027.10 1027.34 1027.69 1028.07
1016.02 1016.96 1019.47 1019.58 1019.98 1020.25 1020.78 1020.86 1021.57 1021.90 1022.60 1022.96 1022.89 1021.29 1020.69 1021.41 1022.20 1023.10 1023.86 1024.19 1024.37 1024.58 1024.81 1024.92 1024.99 1024.89 1024.83 1024.71 1024.63 1024.64 1024.66 1024.82 1024.98 1025.15 1025.32 1025.47 1025.58 1025.83 1026.17 1026.49 1026.78 1027.09 1027.47 1027.85
1016.39 1017.24 1019.29 1020.00 1020.89 1021.27 1021.09 1021.18 1021.42 1022.28 1023.68 1024.18 1023.76 1022.07 1021.67 1022.36 1022.84 1023.53 1024.34 1024.62 1024.89 1025.22 1025.44 1025.59 1025.61 1025.56 1025.51 1025.43 1025.46 1025.50 1025.39 1025.32 1025.39 1025.36 1025.42 1025.54 1025.67 1025.82 1026.04 1026.21 1026.32 1026.73 1026.99 1027.36
1016.37 1017.36 1019.25 1020.38 1021.54 1021.65 1021.75 1021.89 1022.39 1022.68 1023.30 1024.33 1024.11 1022.85 1022.59 1023.17 1023.79 1024.26 1024.76 1025.11 1025.40 1025.75 1026.04 1026.26 1026.25 1026.26 1026.28 1026.36 1026.35 1026.22 1026.09 1026.04 1025.94 1025.81 1025.73 1025.71 1025.78 1025.88 1026.02 1026.18 1026.39 1026.65 1026.82 1027.05
1016.11 1017.28 1018.20 1019.28 1019.82 1020.54 1021.99 1022.36 1022.98 1023.32 1024.41 1024.32 1023.86 1023.30 1023.49 1023.92 1024.28 1024.83 1025.23 1025.68 1026.12 1026.53 1026.80 1026.97 1026.98 1027.03 1027.00 1026.88 1026.81 1026.71 1026.61 1026.59 1026.42 1026.18 1026.02 1025.98 1025.97 1025.96 1026.03 1026.12 1026.25 1026.42 1026.63 1026.89
1017.00 1017.94 1018.92 1019.73 1020.38 1021.06 1021.81 1022.70 1023.44 1023.93 1023.71 1024.18 1024.08 1023.97 1023.50 1023.81 1024.48 1025.26 1025.66 1026.42 1026.93 1027.23 1027.53 1027.65 1027.64 1027.61 1027.53 1027.43 1027.27 1027.18 1027.05 1026.95 1026.79 1026.57 1026.48 1026.44 1026.37 1026.28 1026.16 1026.15 1026.17 1026.24 1026.42 1026.49
1018.09 1019.24 1020.08 1021.07 1021.63 1022.12 1022.91 1023.08 1023.66 1024.35 1024.51 1024.72 1024.89 1024.81 1023.94 1024.54 1025.45 1025.97 1026.31 1027.12 1027.86 1028.19 1028.46 1028.43 1028.23 1028.06 1027.80 1027.61 1027.42 1027.28 1027.18 1027.06 1027.05 1026.98 1026.89 1026.74 1026.56 1026.46 1026.54 1026.40 1026.26 1026.28 1026.35 1026.46
1019.26 1020.14 1021.44 1022.19 1022.62 1023.09 1023.46 1021.88 1022.74 1023.25 1023.80 1023.94 1024.88 1023.74 1024.10 1024.98 1025.56 1026.35 1026.93 1027.78 1028.65 1029.12 1029.03 1029.17 1028.90 1028.58 1028.25 1027.92 1027.57 1027.38 1027.26 1027.15 1027.15 1027.08 1026.90 1026.83 1026.67 1026.58 1026.57 1026.66 1026.59 1026.40 1026.47 1026.61
1019.88 1020.97 1022.11 1023.32 1023.52 1023.01 1021.12 1021.27 1021.77 1022.43 1022.94 1023.64 1024.09 1024.16 1024.68 1025.31 1026.18 1027.08 1028.00 1028.61 1029.42 1029.64 1029.96 1030.00 1029.75 1029.21 1028.59 1028.14 1027.79 1027.34 1027.21 1027.11 1027.01 1026.86 1026.69 1026.51 1026.52 1026.49 1026.52 1026.64 1026.71 1026.61 1026.42 1026.49
1020.27 1021.09 1022.94 1023.90 1023.99 1021.66 1020.98 1021.12 1021.56 1021.76 1022.00 1022.60 1023.63 1024.46 1025.33 1026.15 1026.73 1027.82 1028.43 1029.28 1030.05 1030.52 1030.69 1030.79 1030.26 1029.66 1029.02 1028.57 1028.13 1027.68 1027.29 1027.08 1026.93 1026.75 1026.50 1026.17 1026.20 1026.26 1026.33 1026.39 1026.46 1026.54 1026.57 1026.60
1021.32 1021.63 1022.62 1024.24 1024.07 1022.00 1020.34 1020.10 1020.50 1021.11 1022.10 1022.17 1023.13 1024.31 1025.25 1026.30 1027.50 1028.29 1029.08 1029.98 1030.60 1031.01 1031.21 1031.02 1030.44 1029.99 1029.39 1028.70 1028.21 1027.74 1027.24 1026.91 1026.70 1026.23 1026.00 1025.83 1025.77 1025.86 1025.94 1025.96 1026.06 1026.19 1026.33 1026.41
1022.67 1023.24 1023.94 1024.37 1023.80 1021.84 1020.45 1020.58 1021.16 1022.18 1022.69 1022.56 1023.41 1024.18 1025.51 1026.63 1027.23 1028.18 1029.62 1030.62 1031.27 1031.81 1031.94 1031.60 1031.22 1030.73 1029.79 1028.81 1028.23 1027.80 1027.37 1026.94 1026.63 1026.30 1025.98 1025.70 1025.59 1025.53 1025.44 1025.54 1025.64 1025.75 1025.92 1026.11
1022.03 1023.13 1024.04 1024.51 1024.36 1022.61 1021.03 1021.65 1022.07 1022.34 1022.60 1023.16 1024.15 1025.01 1026.16 1026.90 1027.94 1029.06 1030.28 1031.45 1032.03 1032.45 1032.55 1032.28 1032.01 1031.56 1030.85 1030.12 1029.29 1028.59 1027.82 1027.52 1026.88 1026.44 1025.95 1025.49 1025.24 1025.13 1025.04 1025.08 1025.18 1025.31 1025.49 1025.74
1022.34 1021.66 1022.23 1022.42 1022.22 1021.95 1022.28 1022.43 1022.79 1022.87 1023.29 1024.24 1024.82 1025.75 1026.55 1027.51 1028.48 1029.44 1030.79 1031.84 1032.55 1033.24 1033.59 1033.26 1033.15 1032.65 1031.92 1031.31 1030.60 1029.90 1029.08 1028.20 1027.39 1026.40 1025.63 1025.28 1025.01 1024.82 1024.68 1024.69 1024.77 1024.97 1025.14 1025.30
1022.18 1022.03 1022.37 1022.78 1022.99 1023.23 1023.42 1023.74 1023.83 1023.90 1024.50 1025.29 1025.90 1026.64 1027.33 1028.15 1028.97 1029.99 1031.01 1032.12 1032.89 1033.62 1034.00 1034.03 1033.93 1033.68 1033.04 1032.18 1031.40 1030.71 1029.74 1028.76 1027.76 1026.64 1025.59 1025.03 1024.90 1024.67 1024.54 1024.45 1024.42 1024.49 1024.68 1024.92
1022.96 1023.07 1023.44 1023.88 1024.37 1024.64 1024.63 1024.83 1025.07 1025.43 1025.87 1026.46 1027.13 1027.77 1028.50 1029.09 1029.95 1030.69 1031.66 1032.67 1033.58 1034.32 1034.50 1034.46 1034.45 1034.10 1033.40 1032.63 1031.82 1030.88 1030.13 1029.15 1028.09 1027.03 1026.14 1025.45 1024.93 1024.65 1024.33 1024.27 1024.17 1024.13 1024.24 1024.37
1024.20 1024.19 1024.57 1024.84 1024.76 1025.08 1025.51 1025.73 1026.12 1026.52 1027.16 1027.75 1028.39 1029.45 1030.19 1030.56 1031.22 1031.86 1032.65 1033.28 1033.98 1034.73 1034.66 1034.63 1034.33 1033.88 1033.20 1032.47 1031.78 1030.95 1030.31 1029.58 1028.71 1027.70 1026.85 1026.13 1025.37 1024.94 1024.55 1024.32 1024.18 1024.00 1024.03 1024.08
Wind_Speed
1 4 8 11 5 3 5 4 3 2 0 3 4 6 7 4 3 5 6 7 9 10 5 8 10 10 10 9 11 12 11 10 8 4 4 3 3 2 2 3 4 4 5 6
4 8 5 4 5 5 4 3 4 0 2 2 4 10 5 1 2 0 3 6 8 5 7 9 10 10 12 13 12 12 11 12 8 6 3 2 3 2 2 2 3 4 5 6
7 2 5 6 4 6 4 5 4 2 2 3 3 8 2 3 4 5 6 4 4 9 10 9 12 12 11 12 13 13 12 12 9 8 6 5 5 3 2 2 2 2 4 5
3 1 5 3 4 6 5 2 4 5 4 4 2 5 3 1 4 5 7 8 7 3 6 6 11 11 12 11 9 11 11 12 9 10 6 7 4 4 3 3 2 3 3 4
4 4 4 3 3 2 3 3 5 3 5 3 1 5 6 1 3 4 6 8 7 5 5 7 8 8 6 7 9 8 10 10 10 10 7 6 4 3 3 3 5 4 3 3
3 1 3 3 3 2 9 7 7 4 3 2 3 4 7 3 2 1 3 6 7 6 6 6 5 7 7 6 7 7 10 9 9 9 8 8 8 6 5 4 5 4 3 3
1 1 1 2 6 4 3 6 2 4 3 6 1 2 8 1 1 1 3 6 6 6 6 6 5 5 6 7 7 7 9 8 9 9 9 9 8 8 8 7 6 6 5 4
7 4 4 2 1 7 4 5 7 8 4 2 2 6 4 2 2 2 4 4 7 9 7 7 6 4 4 5 5 6 8 7 8 9 9 7 7 6 6 7 6 6 6 5
6 2 0 3 1 2 5 4 4 9 2 3 3 5 0 2 2 3 5 6 7 8 8 8 8 6 5 4 4 5 5 4 6 7 6 7 7 8 7 8 6 5 6 5
5 5 1 1 1 4 3 3 4 3 4 4 4 5 5 7 7 5 4 5 5 6 8 8 9 8 7 6 3 2 3 4 4 5 6 6 7 7 6 5 7 8 6 7
4 4 1 1 5 7 2 1 4 4 3 6 2 7 3 5 8 8 6 4 4 5 6 6 7 7 7 7 7 6 4 1 1 2 3 5 6 7 6 7 7 8 6 8
1 6 4 2 1 1 0 3 4 5 5 2 3 7 1 1 5 8 7 5 4 5 5 5 6 7 8 9 8 8 7 6 5 3 2 3 4 4 6 7 8 7 9 9
7 0 4 3 2 1 3 3 4 4 3 6 7 7 1 3 3 3 6 4 4 4 6 6 7 8 8 8 7 7 7 7 6 4 3 1 1 3 4 5 5 6 7 8
4 3 5 7 4 5 4 5 4 4 4 5 7 3 4 6 8 7 5 4 4 4 5 6 6 7 7 7 7 7 7 6 6 5 5 4 2 3 3 4 5 6 7 8
2 5 3 2 3 2 3 7 10 7 5 7 6 9 7 10 9 7 5 5 4 3 5 4 4 5 5 5 6 7 7 8 8 7 6 5 4 4 3 3 4 5 6 8
2 4 3 2 3 5 1 4 8 7 3 1 3 6 3 2 4 5 7 6 4 4 1 3 3 4 6 6 6 6 7 6 4 5 4 5 4 3 4 4 3 3 4 4
4 7 4 4 3 3 6 12 12 6 4 9 8 11 6 5 7 6 7 5 6 3 3 2 3 4 5 4 3 6 7 6 5 4 4 4 3 3 3 4 4 5 5 4
6 6 3 3 2 3 7 1 3 4 5 5 1 4 5 6 5 2 2 5 4 2 3 2 3 5 6 4 5 5 6 7 6 5 4 3 4 4 3 4 5 4 5 8
3 5 4 6 4 5 0 6 8 9 7 11 8 8 8 7 4 5 3 2 3 2 2 3 3 3 4 7 6 5 7 6 6 7 5 4 4 5 6 7 7 6 5 5
5 6 5 3 5 8 5 2 3 3 6 8 7 11 14 7 4 4 4 3 3 3 2 4 7 3 3 6 5 6 7 7 7 7 7 6 6 7 7 8 8 6 6 7
3 3 5 3 3 10 4 3 3 7 8 5 8 12 13 5 3 8 6 5 3 1 5 5 5 5 6 9 7 7 7 8 8 7 7 5 5 8 9 8 7 7 8 7
8 9 5 4 2 10 3 4 7 3 3 5 5 4 8 9 9 7 7 4 4 6 6 7 7 7 7 10 8 8 6 11 10 10 10 7 7 7 7 9 7 8 8 8
2 7 8 10 7 1 3 3 1 2 5 4 9 8 9 8 4 6 5 4 3 3 4 3 5 6 6 7 5 6 9 10 11 11 11 9 8 7 7 7 7 7 7 7
3 3 3 4 2 3 1 3 3 4 7 7 9 7 4 6 5 6 6 4 4 4 5 4 5 6 6 6 6 4 8 10 9 10 9 8 7 6 5 6 6 7 7 6
4 4 5 3 2 1 2 1 5 8 8 9 8 6 6 6 6 5 5 5 3 2 3 2 3 3 5 5 5 5 7 8 8 8 7 7 5 6 4 6 6 6 6 8
2 5 5 5 2 3 1 6 6 7 7 6 7 7 8 6 6 5 4 2 2 3 4 4 4 3 5 5 6 7 7 7 6 7 7 7 5 4 3 3 3 7 10 14
Wind_Direction
74 122 203 202 181 126 132 154 179 182 98 159 231 263 258 247 206 222 228 216 210 213 197 184 184 174 160 159 158 162 155 156 146 142 134 124 123 112 92 92 111 123 129 133
73 228 203 116 158 145 147 147 230 130 79 141 11 280 273 185 96 37 261 239 229 178 180 179 176 173 178 173 173 166 165 163 166 157 134 133 142 122 109 122 118 133 137 139
160 204 129 139 140 147 180 176 190 192 88 62 319 292 156 64 97 44 19 324 282 210 187 178 180 181 177 177 176 172 168 168 165 145 124 100 96 95 122 138 134 134 139 143
218 129 141 144 174 140 186 205 122 128 99 219 5 265 296 146 121 49 3 1 343 268 173 160 174 180 182 184 173 169 164 164 163 161 158 161 159 156 179 159 144 135 140 143
227 156 154 159 164 181 167 85 100 92 100 63 349 80 262 171 163 5 359 358 353 5 160 161 167 168 167 161 172 164 158 161 164 174 171 163 162 143 138 138 145 144 133 148
89 32 46 111 73 45 151 79 55 59 86 43 236 143 276 184 124 349 352 2 5 30 77 100 122 137 141 146 148 152 163 171 168 176 176 179 173 165 155 162 170 170 165 161
77 62 56 86 85 27 86 92 16 358 5 217 188 81 245 137 74 91 24 13 17 36 69 92 112 136 149 161 162 162 168 174 177 182 187 191 189 182 185 180 182 177 174 186
158 255 169 347 135 172 172 149 161 196 195 200 74 231 260 98 91 61 62 61 45 45 44 54 67 95 133 153 166 172 175 172 180 188 199 192 190 196 198 193 192 197 197 188
137 174 29 47 36 71 187 189 136 104 54 49 206 279 269 130 110 93 79 66 52 47 43 45 46 54 77 122 159 179 177 179 191 200 190 198 197 199 204 203 202 204 198 189
187 102 357 143 133 36 135 157 93 1 140 232 278 278 226 196 187 156 114 93 71 55 47 41 40 38 43 46 57 123 173 197 195 195 203 212 212 211 210 200 212 212 206 193
125 97 270 129 198 177 115 5 46 106 111 164 168 259 195 194 174 162 153 125 92 66 52 45 41 39 43 46 40 42 45 37 239 224 218 211 209 208 201 209 217 217 202 197
146 127 152 163 300 195 50 194 159 131 230 76 144 269 3 267 165 150 155 129 90 70 55 50 48 48 44 41 37 34 28 32 16 351 267 240 236 211 208 215 215 202 212 201
194 275 90 1 12 26 212 177 116 109 89 198 139 257 48 126 149 165 150 141 94 70 58 40 41 42 37 32 29 30 28 21 14 9 6 344 254 219 235 242 237 219 216 206
129 116 159 189 175 121 171 180 131 125 125 169 217 221 234 196 184 178 158 100 103 96 85 69 61 55 45 36 28 20 15 13 9 10 4 347 312 249 248 251 239 228 216 207
133 160 143 84 62 77 172 164 182 187 190 164 232 191 218 197 191 179 160 145 131 86 104 56 57 46 27 19 27 20 17 10 0 1 358 346 326 301 264 237 234 231 215 213
0 139 96 335 108 67 263 206 194 211 226 39 107 268 201 152 134 160 167 156 153 147 160 112 53 19 26 19 7 1 1 358 358 350 335 327 335 336 307 286 227 203 200 193
114 135 108 253 38 32 336 221 181 186 195 142 180 213 154 160 165 176 177 162 164 209 234 201 34 12 350 312 316 341 336 335 329 319 318 308 288 276 264 271 240 203 191 173
130 103 90 166 26 324 243 160 142 172 212 181 69 148 149 143 113 142 211 151 174 168 45 38 337 339 327 323 322 325 323 312 309 301 281 279 276 267 241 213 233 228 187 181
19 117 102 138 203 304 160 199 166 168 260 181 159 151 131 141 121 57 113 144 112 148 254 250 257 267 310 327 317 300 294 297 294 291 274 252 242 253 231 223 216 208 194 193
61 62 110 114 158 218 249 184 184 137 301 173 157 162 152 153 120 195 117 101 40 32 345 350 336 307 320 324 318 328 309 292 281 265 260 249 228 233 240 229 208 199 202 203
100 50 169 169 229 288 250 152 163 101 243 132 151 155 156 154 201 120 105 56 24 40 357 8 357 348 322 354 343 336 328 306 291 289 284 263 235 239 246 230 215 202 203 195
163 150 183 93 75 276 123 105 163 195 46 103 111 133 130 122 126 118 97 78 43 22 359 10 11 359 344 358 355 348 351 348 335 319 298 269 250 239 242 226 210 204 196 193
260 180 179 180 210 107 51 75 11 336 124 122 128 130 138 130 122 116 113 75 35 23 351 346 5 347 342 349 355 354 333 334 325 311 304 295 269 244 228 212 206 200 192 194
254 172 138 74 194 150 112 67 52 63 101 108 119 106 108 119 100 98 92 63 35 10 9 352 3 2 343 337 337 306 320 329 320 325 318 301 261 254 223 218 208 201 192 192
195 108 161 276 305 30 255 135 122 97 93 91 73 74 87 95 85 80 77 56 37 351 333 347 353 324 309 312 320 322 331 330 340 335 331 328 291 268 228 222 211 208 209 202
192 183 163 217 195 142 143 135 125 105 99 90 105 84 63 82 97 104 97 75 114 4 336 348 329 330 325 337 340 341 336 342 343 347 343 336 328 307 285 243 230 242 219 223